sat.trackr.live / text

‹ back to catalog

STARLINK-37536

NORAD 69508 · 2026-133A

PAYLOAD ACTIVE UNKNOWN

§ Identity

Operator
Country
US
Launch date
2026-06-12
Launch site
AFETR
Launch vehicle
Mass (kg)
RCS (m²)

Purposes: comms

External: N2YO · Heavens-Above · Gunter

§ Orbital elements

Epoch: 2026-09-19T22:32:53.371104Z

Period
93.85 min
Inclination
53.1555°
Eccentricity
0.0001189
Mean motion
15.34397363 rev/d
Perigee alt
461.9 km
Apogee alt
463.5 km
Semi-major
6,840.8 km
B*
6.2113e-5
RAAN
232.6645°
Arg perigee
94.8854°
Mean anomaly
265.2284°
Rev number
1,540

§ Raw data

STARLINK-375361 69508U 26133A   26262.93950661  .00001723  00000+0  62113-4 0  99992 69508  53.1555 232.6645 0001189  94.8854 265.2284 15.34397363 15402

JSON: /api/v1/satellites/69508 · /tle

For live sub-satellite position, see the globe view (requires WebGL).

§ Visibility from observer

Set your observer location to see the next 7 days of passes ≥ 10°. The values pass through the URL so the page stays shareable.

No JS? Fill the form by hand. The geolocation button needs JavaScript.